| time (UTC) | temp C | wind direction | speed KPH | gust KPH | rain 1hr cm | rain 24hr cm | rain mn cm | humidity % | barometer mb |
| 20260509201529 | 11 | 266 | 0.0 | 6.4 | 0.00 | 0.00 | 0.00 | 72 | 1014.5 |
| 20260509194540 | 11 | 267 | 0.0 | 6.4 | 0.00 | 0.00 | 0.00 | 73 | 1014.8 |
| 20260509193027 | 11 | 261 | 0.0 | 4.8 | 0.00 | 0.00 | 0.00 | 73 | 1014.9 |
| 20260509191526 | 11 | 257 | 0.0 | 11.3 | 0.00 | 0.00 | 0.00 | 73 | 1015.0 |
| 20260509184528 | 11 | 181 | 1.6 | 6.4 | 0.00 | 0.00 | 0.00 | 74 | 1015.0 |
| 20260509183025 | 11 | 180 | 1.6 | 8.0 | 0.00 | 0.00 | 0.00 | 74 | 1015.0 |
| 20260509181524 | 11 | 180 | 0.0 | 4.8 | 0.00 | 0.00 | 0.00 | 74 | 1014.9 |
| 20260509174524 | 12 | 180 | 0.0 | 4.8 | 0.00 | 0.00 | 0.00 | 73 | 1014.9 |
| 20260509173030 | 12 | 179 | 0.0 | 0.0 | 0.00 | 0.00 | 0.00 | 73 | 1014.8 |
| 20260509171526 | 12 | 179 | 0.0 | 1.6 | 0.00 | 0.00 | 0.00 | 72 | 1014.8 |
| 20260509164517 | 13 | 179 | 0.0 | 3.2 | 0.00 | 0.00 | 0.00 | 70 | 1014.6 |
| 20260509163014 | 13 | 179 | 0.0 | 8.0 | 0.00 | 0.00 | 0.00 | 68 | 1014.6 |
| 20260509161512 | 13 | 178 | 0.0 | 9.7 | 0.00 | 0.00 | 0.00 | 67 | 1014.3 |
| 20260509154511 | 15 | 173 | 0.0 | 8.0 | 0.00 | 0.00 | 0.00 | 64 | 1014.3 |
| 20260509153020 | 15 | 172 | 0.0 | 1.6 | 0.00 | 0.00 | 0.00 | 63 | 1014.1 |
| 20260509151503 | 16 | 172 | 0.0 | 3.2 | 0.00 | 0.00 | 0.00 | 61 | 1014.2 |
| 20260509144501 | 17 | 252 | 0.0 | 8.0 | 0.00 | 0.00 | 0.00 | 59 | 1014.1 |
| 20260509143059 | 17 | 140 | 0.0 | 11.3 | 0.00 | 0.00 | 0.00 | 57 | 1014.0 |
| 20260509141556 | 17 | 152 | 0.0 | 12.9 | 0.00 | 0.00 | 0.00 | 56 | 1014.1 |
| 20260509134555 | 18 | 161 | 0.0 | 8.0 | 0.00 | 0.00 | 0.00 | 55 | 1014.1 |
| 20260509133054 | 18 | 155 | 3.2 | 16.1 | 0.00 | 0.00 | 0.00 | 54 | 1014.3 |
| 20260509131552 | 18 | 194 | 3.2 | 16.1 | 0.00 | 0.00 | 0.00 | 54 | 1014.4 |
| 20260509124554 | 18 | 131 | 3.2 | 20.9 | 0.00 | 0.00 | 0.00 | 54 | 1014.7 |
| 20260509123050 | 18 | 182 | 1.6 | 16.1 | 0.00 | 0.00 | 0.00 | 54 | 1014.6 |
| 20260509121548 | 18 | 162 | 0.0 | 11.3 | 0.00 | 0.00 | 0.00 | 55 | 1014.7 |
| 20260509114545 | 18 | 117 | 1.6 | 22.5 | 0.00 | 0.00 | 0.00 | 54 | 1015.0 |
| 20260509113044 | 18 | 163 | 0.0 | 12.9 | 0.00 | 0.00 | 0.00 | 56 | 1015.4 |
| 20260509111542 | 18 | 148 | 0.0 | 12.9 | 0.00 | 0.00 | 0.00 | 55 | 1015.5 |
| 20260509104539 | 17 | 160 | 0.0 | 12.9 | 0.00 | 0.00 | 0.00 | 55 | 1016.3 |
| 20260509103040 | 17 | 216 | 1.6 | 16.1 | 0.00 | 0.00 | 0.00 | 56 | 1016.5 |
| 20260509101536 | 17 | 169 | 1.6 | 11.3 | 0.00 | 0.00 | 0.00 | 57 | 1016.8 |
| 20260509094536 | 16 | 146 | 4.8 | 16.1 | 0.00 | 0.00 | 0.00 | 57 | 1017.7 |
| 20260509093033 | 16 | 194 | 0.0 | 17.7 | 0.00 | 0.00 | 0.00 | 57 | 1017.8 |
| 20260509091544 | 16 | 184 | 1.6 | 8.0 | 0.00 | 0.00 | 0.00 | 57 | 1017.9 |
| 20260509084532 | 16 | 169 | 0.0 | 11.3 | 0.00 | 0.00 | 0.00 | 57 | 1018.3 |
| 20260509083026 | 15 | 199 | 1.6 | 14.5 | 0.00 | 0.00 | 0.00 | 59 | 1018.7 |
| 20260509081522 | 15 | 237 | 0.0 | 12.9 | 0.00 | 0.00 | 0.00 | 60 | 1018.8 |
| 20260509074523 | 14 | 242 | 0.0 | 16.1 | 0.00 | 0.00 | 0.00 | 62 | 1019.2 |
| 20260509073033 | 13 | 142 | 0.0 | 6.4 | 0.00 | 0.00 | 0.00 | 64 | 1019.2 |
| 20260509071521 | 12 | 245 | 0.0 | 4.8 | 0.00 | 0.00 | 0.00 | 69 | 1019.0 |
| 20260509064518 | 11 | 225 | 0.0 | 4.8 | 0.00 | 0.00 | 0.00 | 73 | 1018.4 |
| 20260509063027 | 10 | 225 | 0.0 | 4.8 | 0.00 | 0.00 | 0.00 | 77 | 1018.2 |
| 20260509061516 | 8 | 225 | 0.0 | 9.7 | 0.00 | 0.00 | 0.00 | 83 | 1018.3 |
| 20260509054517 | 6 | 112 | 0.0 | 0.0 | 0.00 | 0.00 | 0.00 | 87 | 1018.0 |
| 20260509053021 | -17 | 0.0 | 0.0 | 0.00 | 0.00 | 0.00 | 1017.8 | ||
| 20260509051514 | -17 | 0.0 | 0.0 | 0.00 | 0.00 | 0.00 | 1017.7 | ||
| 20260509044505 | -17 | 0.0 | 0.0 | 0.00 | 0.00 | 0.00 | 1017.7 | ||
| 20260509043001 | -17 | 0.0 | 0.0 | 0.00 | 0.00 | 0.00 | 1017.7 | ||
| 20260509041559 | 5 | 111 | 0.0 | 0.0 | 0.00 | 0.00 | 0.00 | 86 | 1017.6 |
| 20260509034604 | 5 | 111 | 0.0 | 0.0 | 0.00 | 0.00 | 0.00 | 85 | 1017.5 |
| 20260509033133 | 5 | 112 | 0.0 | 0.0 | 0.00 | 0.00 | 0.00 | 85 | 1017.5 |
| 20260509031559 | 5 | 112 | 0.0 | 0.0 | 0.00 | 0.00 | 0.00 | 85 | 1017.4 |
| 20260509024607 | 5 | 111 | 0.0 | 0.0 | 0.00 | 0.00 | 0.00 | 86 | 1017.2 |
| 20260509023058 | 5 | 111 | 0.0 | 0.0 | 0.00 | 0.00 | 0.00 | 86 | 1017.2 |
| 20260509021558 | 5 | 111 | 0.0 | 0.0 | 0.00 | 0.00 | 0.00 | 86 | 1017.3 |
| 20260509014559 | 5 | 112 | 0.0 | 0.0 | 0.00 | 0.00 | 0.00 | 86 | 1017.3 |
| 20260509013103 | 5 | 111 | 0.0 | 0.0 | 0.00 | 0.00 | 0.00 | 86 | 1017.3 |
| 20260509011602 | 5 | 112 | 0.0 | 0.0 | 0.00 | 0.00 | 0.00 | 86 | 1017.5 |
| 20260509004600 | 5 | 112 | 0.0 | 0.0 | 0.00 | 0.00 | 0.00 | 86 | 1017.6 |
| 20260509003102 | 5 | 112 | 0.0 | 0.0 | 0.00 | 0.00 | 0.00 | 86 | 1017.6 |
| 20260509001557 | 5 | 112 | 0.0 | 0.0 | 0.00 | 0.00 | 0.00 | 85 | 1017.7 |
| 20260508234603 | 5 | 111 | 0.0 | 0.0 | 0.00 | 0.00 | 0.00 | 85 | 1017.9 |
| 20260508233105 | 5 | 111 | 0.0 | 0.0 | 0.00 | 0.00 | 0.00 | 85 | 1017.9 |
| 20260508231555 | 5 | 112 | 0.0 | 0.0 | 0.00 | 0.00 | 0.00 | 84 | 1017.7 |
| 20260508224557 | 5 | 111 | 0.0 | 0.0 | 0.00 | 0.00 | 0.00 | 84 | 1017.7 |
| 20260508223056 | 5 | 112 | 0.0 | 0.0 | 0.00 | 0.00 | 0.00 | 84 | 1017.7 |
| 20260508221557 | 5 | 111 | 0.0 | 0.0 | 0.00 | 0.00 | 0.00 | 84 | 1017.5 |
| 20260508214554 | 5 | 112 | 0.0 | 0.0 | 0.00 | 0.00 | 0.00 | 84 | 1017.7 |
| 20260508213056 | 5 | 112 | 0.0 | 0.0 | 0.00 | 0.00 | 0.00 | 83 | 1017.8 |
| 20260508211553 | 6 | 112 | 0.0 | 0.0 | 0.00 | 0.00 | 0.00 | 83 | 1018.1 |
| 20260508204552 | 6 | 112 | 0.0 | 0.0 | 0.00 | 0.00 | 0.00 | 83 | 1018.1 |
| 20260508203050 | 6 | 112 | 0.0 | 0.0 | 0.00 | 0.00 | 0.00 | 83 | 1018.2 |